TimeCDT,TemperatureF,Dew PointF,Humidity,Sea Level PressureIn,VisibilityMPH,Wind Direction,Wind SpeedMPH,Gust SpeedMPH,PrecipitationIn,Events,Conditions,WindDirDegrees,DateUTC
12:15 AM,83.3,51.1,33,29.88,10.0,South,12.7,21.9,N/A,,Clear,190,2013-07-07 05:15:00
12:35 AM,83.5,50.5,32,29.88,10.0,SW,24.2,28.8,N/A,,Clear,230,2013-07-07 05:35:00
12:55 AM,82.4,52.0,35,29.88,10.0,SW,17.3,25.3,N/A,,Clear,230,2013-07-07 05:55:00
1:15 AM,81.5,52.7,37,29.88,10.0,SW,13.8,21.9,N/A,,Clear,230,2013-07-07 06:15:00
1:35 AM,81.1,53.1,38,29.88,10.0,SW,17.3,23.0,N/A,,Clear,230,2013-07-07 06:35:00
1:55 AM,80.6,53.2,39,29.88,10.0,WSW,15.0,-,N/A,,Clear,240,2013-07-07 06:55:00
2:15 AM,79.7,53.6,40,29.89,10.0,WSW,10.4,-,N/A,,Clear,240,2013-07-07 07:15:00
2:35 AM,78.8,53.6,42,29.90,10.0,WSW,10.4,-,N/A,,Clear,240,2013-07-07 07:35:00
2:55 AM,78.3,53.6,42,29.90,10.0,WSW,9.2,-,N/A,,Clear,240,2013-07-07 07:55:00
3:15 AM,77.9,54.0,43,29.89,10.0,WSW,11.5,-,N/A,,Clear,250,2013-07-07 08:15:00
3:35 AM,77.4,54.1,44,29.90,10.0,SW,11.5,-,N/A,,Clear,220,2013-07-07 08:35:00
3:55 AM,77.0,54.3,45,29.90,10.0,SW,9.2,-,N/A,,Clear,230,2013-07-07 08:55:00
4:15 AM,75.6,54.5,48,29.91,10.0,SSW,10.4,-,N/A,,Clear,210,2013-07-07 09:15:00
4:35 AM,74.8,54.5,49,29.91,10.0,SW,9.2,-,N/A,,Clear,230,2013-07-07 09:35:00
4:55 AM,75.2,54.5,48,29.92,10.0,SSW,12.7,-,N/A,,Clear,200,2013-07-07 09:55:00
5:15 AM,74.7,54.1,49,29.92,10.0,SW,9.2,-,N/A,,Clear,220,2013-07-07 10:15:00
5:35 AM,72.7,54.0,52,29.93,10.0,WSW,4.6,-,N/A,,Clear,250,2013-07-07 10:35:00
5:55 AM,71.1,54.5,56,29.93,10.0,SW,5.8,-,N/A,,Clear,230,2013-07-07 10:55:00
6:15 AM,71.1,54.5,56,29.93,10.0,West,4.6,-,N/A,,Clear,260,2013-07-07 11:15:00
6:35 AM,69.1,54.5,60,29.93,10.0,WSW,8.1,-,N/A,,Clear,250,2013-07-07 11:35:00
6:55 AM,69.4,54.5,59,29.94,10.0,SW,9.2,-,N/A,,Clear,230,2013-07-07 11:55:00
7:15 AM,72.7,54.0,52,29.93,10.0,SW,9.2,-,N/A,,Clear,220,2013-07-07 12:15:00
7:35 AM,75.2,53.6,47,29.93,10.0,SW,10.4,-,N/A,,Clear,230,2013-07-07 12:35:00
7:55 AM,76.8,52.9,43,29.93,10.0,WSW,11.5,-,N/A,,Clear,250,2013-07-07 12:55:00
8:15 AM,78.4,52.2,40,29.94,10.0,West,8.1,-,N/A,,Clear,270,2013-07-07 13:15:00
8:35 AM,81.0,50.0,34,29.95,10.0,West,10.4,16.1,N/A,,Clear,280,2013-07-07 13:35:00
8:55 AM,82.0,51.4,34,29.94,10.0,WNW,10.4,-,N/A,,Clear,290,2013-07-07 13:55:00
9:15 AM,82.4,53.4,37,29.94,10.0,West,8.1,-,N/A,,Clear,280,2013-07-07 14:15:00
9:35 AM,83.3,54.3,37,29.95,10.0,West,6.9,-,N/A,,Clear,280,2013-07-07 14:35:00
9:55 AM,84.7,56.5,38,29.96,10.0,NW,6.9,-,N/A,,Clear,320,2013-07-07 14:55:00
10:15 AM,85.1,57.2,39,29.96,10.0,NW,8.1,-,N/A,,Clear,320,2013-07-07 15:15:00
10:35 AM,86.0,55.6,35,29.96,10.0,NW,4.6,-,N/A,,Clear,320,2013-07-07 15:35:00
10:55 AM,87.8,54.9,32,29.96,10.0,NNW,5.8,-,N/A,,Clear,330,2013-07-07 15:55:00
11:15 AM,88.7,53.8,30,29.96,10.0,NNW,4.6,-,N/A,,Clear,330,2013-07-07 16:15:00
11:35 AM,89.1,53.1,29,29.96,10.0,Calm,Calm,-,N/A,,Clear,0,2013-07-07 16:35:00
11:55 AM,90.9,52.3,27,29.96,10.0,WNW,6.9,-,N/A,,Clear,290,2013-07-07 16:55:00
12:15 PM,93.4,51.6,24,29.96,10.0,Calm,Calm,-,N/A,,Clear,0,2013-07-07 17:15:00
12:35 PM,94.6,50.2,22,29.96,10.0,SW,4.6,-,N/A,,Clear,220,2013-07-07 17:35:00
12:55 PM,95.5,47.5,19,29.96,10.0,WNW,6.9,-,N/A,,Clear,290,2013-07-07 17:55:00
1:15 PM,95.9,46.9,19,29.96,10.0,Calm,Calm,-,N/A,,Clear,0,2013-07-07 18:15:00
1:35 PM,97.3,46.2,17,29.95,10.0,West,4.6,-,N/A,,Clear,260,2013-07-07 18:35:00
1:55 PM,97.9,45.3,17,29.94,10.0,Calm,Calm,-,N/A,,Clear,0,2013-07-07 18:55:00
2:15 PM,99.1,44.2,15,29.94,10.0,North,4.6,-,N/A,,Clear,350,2013-07-07 19:15:00
2:35 PM,100.8,42.3,13,29.93,10.0,NNW,5.8,-,N/A,,Clear,330,2013-07-07 19:35:00
2:55 PM,99.9,42.3,14,29.93,10.0,Calm,Calm,-,N/A,,Clear,0,2013-07-07 19:55:00
3:15 PM,101.1,44.8,15,29.93,10.0,NNW,5.8,-,N/A,,Scattered Clouds,340,2013-07-07 20:15:00
3:35 PM,99.3,46.0,16,29.92,10.0,North,8.1,-,N/A,,Mostly Cloudy,350,2013-07-07 20:35:00
3:55 PM,99.3,45.5,16,29.92,10.0,North,8.1,-,N/A,,Mostly Cloudy,350,2013-07-07 20:55:00
4:15 PM,101.5,45.0,15,29.91,10.0,ENE,5.8,-,N/A,,Scattered Clouds,60,2013-07-07 21:15:00
4:35 PM,101.7,44.1,14,29.91,10.0,North,4.6,-,N/A,,Clear,350,2013-07-07 21:35:00
4:55 PM,102.6,44.2,14,29.91,10.0,ENE,9.2,18.4,N/A,,Scattered Clouds,60,2013-07-07 21:55:00
5:15 PM,99.0,44.6,16,29.91,10.0,ENE,9.2,-,N/A,,Mostly Cloudy,60,2013-07-07 22:15:00
5:35 PM,100.0,41.7,14,29.90,10.0,ENE,9.2,-,N/A,,Scattered Clouds,70,2013-07-07 22:35:00
5:55 PM,99.1,45.5,16,29.90,10.0,SE,20.7,25.3,N/A,,Clear,140,2013-07-07 22:55:00
6:15 PM,94.6,50.5,22,29.90,10.0,SE,19.6,29.9,N/A,,Scattered Clouds,140,2013-07-07 23:15:00
6:35 PM,96.1,49.6,21,29.90,10.0,SE,18.4,25.3,N/A,,Clear,130,2013-07-07 23:35:00
6:55 PM,91.2,51.1,25,29.91,10.0,ESE,20.7,27.6,N/A,,Clear,110,2013-07-07 23:55:00
7:15 PM,90.5,51.6,26,29.91,10.0,ESE,15.0,-,N/A,,Scattered Clouds,120,2013-07-08 00:15:00
7:35 PM,90.5,52.2,27,29.90,10.0,ESE,12.7,-,N/A,,Scattered Clouds,120,2013-07-08 00:35:00
7:55 PM,90.5,53.4,28,29.90,10.0,SE,6.9,-,N/A,,Clear,130,2013-07-08 00:55:00
8:15 PM,88.2,54.7,32,29.91,10.0,SE,5.8,-,N/A,,Clear,130,2013-07-08 01:15:00
8:35 PM,88.0,52.7,30,29.92,10.0,ESE,6.9,-,N/A,,Clear,120,2013-07-08 01:35:00
8:55 PM,87.3,54.1,32,29.92,10.0,SSE,20.7,-,N/A,,Scattered Clouds,150,2013-07-08 01:55:00
9:15 PM,84.4,57.2,39,29.92,10.0,South,20.7,25.3,N/A,,Scattered Clouds,170,2013-07-08 02:15:00
9:35 PM,84.2,56.7,39,29.92,10.0,South,18.4,25.3,N/A,,Clear,190,2013-07-08 02:35:00
9:55 PM,84.0,56.3,39,29.94,10.0,South,18.4,23.0,N/A,,Clear,190,2013-07-08 02:55:00
10:15 PM,82.9,58.5,43,30.01,10.0,North,13.8,26.5,N/A,,Mostly Cloudy,350,2013-07-08 03:15:00
10:35 PM,77.0,63.7,63,30.01,10.0,North,9.2,24.2,N/A,Rain,Light Rain,350,2013-07-08 03:35:00
10:55 PM,73.6,65.3,75,30.01,10.0,NNE,6.9,-,N/A,Rain,Light Rain,20,2013-07-08 03:55:00
11:15 PM,72.1,66.6,83,30.05,10.0,NNE,6.9,-,N/A,,Light Drizzle,20,2013-07-08 04:15:00
11:35 PM,71.1,66.4,85,30.06,10.0,NE,6.9,-,N/A,Rain,Light Rain,50,2013-07-08 04:35:00
11:55 PM,70.9,65.8,84,30.07,10.0,ENE,10.4,-,N/A,,Scattered Clouds,70,2013-07-08 04:55:00